Cloud_Cover
0 0 0 0 0 0 0 0 0 0 0 0 0 0 0 0 0 0 0 0 0 0 0 0 0 0 0 0 4 93 43 5 5 91 42 6 5 12 49 89 46 6 5 37
0 0 0 0 0 0 0 0 0 0 0 0 0 0 0 0 0 0 0 0 0 0 0 0 0 0 8 8 4 3 77 62 84 61 81 98 17 10 82 90 5 100 16 97
0 0 0 0 0 0 0 0 0 0 0 0 0 1 0 0 0 0 0 0 0 0 0 0 0 9 18 20 5 6 21 58 81 34 12 94 100 76 37 11 12 18 100 78
0 0 0 0 0 0 0 0 0 0 0 16 0 28 3 0 0 0 0 0 0 0 0 0 0 0 7 54 26 100 76 91 91 7 90 80 100 100 84 46 59 94 64 54
0 0 0 0 0 0 0 0 0 0 0 0 3 1 98 0 4 4 1 0 0 0 0 0 0 0 0 0 0 3 76 38 7 0 13 19 100 84 64 5 98 100 93 12
0 0 0 0 0 0 0 0 0 0 1 8 23 1 6 59 54 6 0 0 0 0 0 0 0 0 0 0 0 0 30 83 23 12 62 6 27 8 31 16 78 100 89 6
0 0 0 0 0 0 0 0 1 31 97 100 7 0 0 0 0 0 0 0 0 0 0 0 0 0 0 0 0 0 0 0 1 6 99 61 5 5 99 90 99 91 69 56
0 4 0 0 0 0 0 0 0 0 5 4 5 3 27 0 0 0 0 0 0 0 0 0 0 0 0 0 0 0 0 0 0 1 2 20 98 47 12 81 97 86 100 45
0 0 0 0 0 0 4 0 1 0 0 1 5 69 18 1 0 0 0 0 1 0 0 0 0 0 0 0 0 0 0 0 0 0 2 0 5 26 7 100 61 88 99 36
0 0 0 0 0 0 0 0 0 2 4 2 18 5 52 11 11 2 5 4 0 0 0 0 0 0 0 0 0 0 0 0 0 0 0 35 4 4 4 3 92 48 25 97
0 0 0 0 0 0 2 1 3 1 0 0 4 19 9 2 28 9 1 1 0 0 0 0 0 0 0 0 0 0 0 0 0 0 5 12 38 42 40 6 0 32 16 100
2 0 0 0 4 0 0 0 0 0 2 5 4 1 22 0 0 0 2 0 0 0 0 0 0 0 0 0 0 0 0 0 0 0 0 1 0 12 51 27 11 0 4 82
0 0 0 0 2 16 1 0 0 0 0 0 1 0 78 16 48 45 5 4 3 0 0 0 0 0 0 0 0 0 0 0 0 9 1 0 0 0 16 25 25 34 24 1
0 0 0 0 1 20 8 5 2 0 0 2 2 0 5 5 5 1 0 4 3 0 0 0 0 0 0 0 0 6 66 12 30 28 62 10 9 6 4 6 16 26 34 7
0 0 0 0 0 0 0 0 0 0 0 0 0 0 0 3 0 0 0 1 3 0 0 0 0 0 0 0 6 85 8 16 95 97 58 64 71 48 71 82 49 42 0 2
0 0 0 0 0 0 0 0 0 0 0 0 0 0 5 0 0 2 5 5 4 0 0 0 0 0 0 0 5 59 48 59 10 34 12 41 78 40 31 99 57 54 0 3
0 1 4 0 0 0 0 0 0 0 0 0 0 4 7 21 56 5 3 1 2 5 0 0 0 0 0 4 18 61 76 91 86 58 60 45 23 47 29 48 91 90 77 81
0 0 0 0 0 0 0 0 0 0 0 0 0 5 5 5 3 4 0 19 16 2 0 0 1 0 0 8 82 39 38 91 55 46 72 100 56 65 48 29 95 80 98 81
0 4 0 0 0 0 1 4 24 4 5 5 12 30 4 22 27 6 78 8 5 0 0 0 0 0 20 22 100 63 31 26 88 87 93 97 98 36 100 82 68 100 100 98
5 5 2 0 3 5 5 8 0 0 0 5 28 36 71 34 35 42 42 8 0 0 0 0 6 100 0 4 64 17 83 100 100 83 92 85 86 99 95 100 99 88 100 32
60 22 14 12 29 20 29 88 8 1 18 16 28 42 100 52 43 15 3 4 1 0 0 0 30 62 8 34 98 34 100 100 100 100 90 88 100 52 44 74 99 92 47 76
5 53 74 94 100 69 29 33 8 82 5 94 74 71 35 6 80 72 89 5 4 0 0 0 21 13 63 71 100 100 100 100 100 100 100 100 100 100 100 85 50 99 99 95
5 4 5 34 91 97 56 7 11 4 5 3 24 96 72 100 100 98 51 5 5 0 0 0 26 23 74 93 48 100 100 100 100 100 100 100 100 100 100 98 100 66 100 100
71 26 51 43 4 29 92 34 100 43 22 54 56 100 100 99 94 65 22 0 6 0 1 83 48 100 100 56 91 100 100 100 100 100 100 100 100 100 100 100 100 100 100 100
96 76 87 39 92 74 91 98 5 76 24 24 26 100 100 98 100 100 55 2 20 11 2 41 70 98 100 85 100 100 100 100 100 100 100 100 100 100 100 100 100 100 100 100
100 95 70 81 100 100 100 11 5 83 41 7 85 90 75 100 100 100 30 11 30 12 14 24 59 100 100 100 100 100 100 100 100 100 100 100 100 100 100 100 100 100 99 100